This is the latest recevied weather packets stored in our database for station/object W5GBS-9. If no packets are shown the sender has not sent any weather packets the latest 10 day(s).
| Time | Temp. | Humidity | Pressure | Rain* | Wind** | Luminosity | Snow |
|---|---|---|---|---|---|---|---|
| 1787896294 | 23.33° C | 100% | 1013.6 hPa | 0 mm | - | - | - |
| 1787895573 | 23.33° C | 100% | 1013.5 hPa | 0 mm | - | - | - |
| 1787894853 | 23.33° C | 100% | 1013.5 hPa | 0 mm | - | - | - |
| 1787894132 | 23.33° C | 100% | 1013.7 hPa | 0 mm | - | - | - |
| 1787892691 | 23.89° C | 100% | 1013.7 hPa | 0 mm | - | - | - |
| 1787891969 | 23.89° C | 100% | 1013.5 hPa | 0 mm | - | - | - |
| 1787891248 | 23.89° C | 100% | 1013.5 hPa | 0 mm | - | - | - |
| 1787890528 | 23.89° C | 100% | 1013.5 hPa | 0 mm | - | - | - |
| 1787889808 | 24.44° C | 100% | 1013.4 hPa | 0 mm | - | - | - |
| 1787889087 | 24.44° C | 100% | 1012.9 hPa | 0 mm | - | - | - |
| 1787888366 | 25° C | 100% | 1012.8 hPa | 0 mm | - | - | - |
| 1787887646 | 24.44° C | 100% | 1012.3 hPa | 0 mm | - | - | - |
| 1787886925 | 24.44° C | 100% | 1012.3 hPa | 0 mm | - | - | - |
| 1787886205 | 24.44° C | 100% | 1012.2 hPa | 0 mm | - | - | - |
| 1787885485 | 25° C | 100% | 1012.1 hPa | 0 mm | - | - | - |
| 1787884763 | 24.44° C | 100% | 1012.3 hPa | 0 mm | - | - | - |
| 1787884042 | 24.44° C | 100% | 1012.8 hPa | 0 mm | - | - | - |
| 1787883321 | 24.44° C | 100% | 1013.5 hPa | 0 mm | - | - | - |
| 1787882600 | 23.89° C | 100% | 1013.9 hPa | 0 mm | - | - | - |
| 1787881879 | 23.89° C | 100% | 1014 hPa | 0 mm | - | - | - |
| 1787881160 | 23.33° C | 100% | 1013.9 hPa | 0 mm | - | - | - |
| 1787880439 | 23.33° C | 100% | 1013.8 hPa | 0 mm | - | - | - |
| 1787879718 | 22.78° C | 100% | 1014 hPa | 0 mm | - | - | - |
| 1787878998 | 23.33° C | 100% | 1014 hPa | 0 mm | - | - | - |
| 1787878277 | 24.44° C | 100% | 1014.4 hPa | 0 mm | - | - | - |
* Rain latest hour (hover to see other rain measurements)
** Current wind speed in m/s (hover to see current wind gust speed)